Preview of NWS' New Version of Forecast
This preview is not operational and should not be used for support decisions.

Regional Weather Roundup (RWR)

Issued by Philadelphia/Mt Holly (PHI)

                            
000
ASUS41 KPHI 180712
RWRPHI

REGIONAL WEATHER ROUNDUP
NATIONAL WEATHER SERVICE MOUNT HOLLY NJ
200 AM EST FRI JAN 18 2019

NOTE:  "FAIR" INDICATES FEW OR NO CLOUDS BELOW 12,000 FEET WITH NO
SIGNIFICANT WEATHER AND/OR OBSTRUCTIONS TO VISIBILITY.

 * = STATION DOES NOT REPORT PRECIPITATION (E.G. RAIN, SNOW, ETC.) 
        OR FOG.

NJZ015>026-180800-
SOUTHERN NEW JERSEY
  
CITY           SKY/WX    TMP DP  RH WIND       PRES   REMARKS
POMONA         LGT SNOW  30  28  92 CALM      30.16F FOG              
WILDWOOD*      MIX PCPN  34  28  79 N6        30.15F WCI  29          
MILLVILLE      LGT SNOW  30  27  88 CALM      30.15F FOG              
WRIGHTSTOWN    FLURRIES  28  27  93 NW3       30.14F                  
MOUNT HOLLY    LGT SNOW  29  26  89 N3        30.18F FOG              
TRENTON        LGT SNOW  28  25  88 N5        30.17S FOG     WCI  23  

$$
NJZ001>014-180800-
NORTHERN NEW JERSEY
  
CITY           SKY/WX    TMP DP  RH WIND       PRES   REMARKS
SUSSEX         LGT SNOW  25  23  92 NE3       30.16F FOG              
ANDOVER*         N/A     25  22  88 NE3       30.16F                  
MORRISTOWN     LGT SNOW  27  27 100 CALM      30.18F                  
NEWARK         LGT SNOW  28  25  88 N8        30.20F FOG     WCI  20  
TETERBORO      LGT SNOW  28  23  81 N9        30.20F FOG     WCI  19  
CALDWELL       LGT SNOW  26  24  92 NE5       30.20F FOG     WCI  20  
SOMERVILLE     LGT SNOW  28  26  92 N3        30.17F FOG              
ALLAIRE*       FLURRIES  30  28  93 N3        30.17F                  
TOMS RIVER*    LGT SNOW  30  29  96 CALM      30.18S FOG              

$$
PAZ043-044-047-054-055-060>062-066>071-180800-
EASTERN PENNSYLVANIA
  
CITY           SKY/WX    TMP DP  RH WIND       PRES   REMARKS
PHILADELPHIA   LGT SNOW  29  27  92 NE3       30.18S FOG              
NORTH PHILA    LGT SNOW  30  26  85 NE5       30.18F FOG     WCI  25  
BLUE BELL*     FAIR      28  28 100 CALM      30.18S                  
DOYLESTOWN     LGT SNOW  27  23  85 CALM      30.15F FOG              
QUAKERTOWN*    MOCLDY    27  25  93 CALM      30.15  FOG              
PERKASIE*      LGT SNOW  25  25 100 NE5       30.15F WCI  19          
POTTSTOWN      LGT SNOW  26  25  96 NE5       30.17S FOG     WCI  20  
LANCASTER      LGT SNOW  28  25  88 NE6       30.14F FOG     WCI  22  
COATESVILLE    LGT SNOW  27  27 100 E8        30.13F WCI  18          
READING        FLURRIES  28  25  88 E7        30.15S WCI  21          
ALLENTOWN      CLOUDY    28  22  78 E6        30.16F WCI  22          
MOUNT POCONO   LGT SNOW  20  19  96 E6        30.05S FOG     WCI  12  
HAZLETON       LGT SNOW N/A N/A N/A SE5       30.08S                  
LEHIGHTON      FLURRIES  28  21  74 CALM      30.16F                  
WILKES BARRE   LGT SNOW  25  19  78 CALM      30.09F                  

$$
DEZALL-MDZ008-012-015-019-020-180800-
DELAWARE AND EASTERN MARYLAND
  
CITY           SKY/WX    TMP DP  RH WIND       PRES   REMARKS
WILMINGTON     LGT SNOW  30  28  92 E6        30.16F FOG     WCI  24  
DOVER          LGT SNOW  32  30  93 N3        30.14F FOG              
GEORGETOWN     MIX PCPN  37  32  82 NE5       30.13F WCI  33          
EASTON         LGT SNOW  33  32  96 NE5       30.16F WCI  29          
PATUXENT       CLOUDY    36  36 100 NE3       30.12                   
OCEAN CITY     CLOUDY    40  36  86 CALM      30.13F                  
WALLOPS ISLAND CLOUDY    39  34  82 CALM      30.13F                  
CAMBRIDGE      CLOUDY    32  32 100 NE3       30.13F                  
SALISBURY      CLOUDY    35  33  92 CALM      30.12F                  

$$
PAZ001-021-NYZ056-072-MDZ011-DCZ001-180800-
OTHER NEARBY LOCATIONS
  
CITY           SKY/WX    TMP DP  RH WIND       PRES   REMARKS
HARRISBURG     LGT SNOW  28  24  85 E6        30.13F FOG     WCI  22  
STATE COLLEGE  LGT SNOW  27  25  94 CALM      30.03F                  
WILLIAMSPORT   LGT SNOW  26  22  84 E10       30.10F FOG     WCI  16  
BINGHAMTON     FLURRIES  20  17  88 S8        30.01F WCI  10          
NEW YORK CITY  LGT SNOW  29  24  82 MISG      30.21                   
BALTIMORE      LGT SNOW  31  30  96 E6        30.13F FOG     WCI  25  
WASHINGTON DC  LGT SNOW  34  32  92 NE3       30.13F FOG              

$$